Location: Unspecified
(38.9820°N, 94.4650°W)
Time: 04:30:41
(UTC-05:00)

Okean 3 - Visible Passes

Search period start: 29 July 2015 00:00
Search period end: 08 August 2015 00:00
Orbit: 579 x 606 km, 82.5° (Epoch: 28 July)

Date Brightness Start Highest point End Pass type
(mag) Time Alt. Az. Time Alt. Az. Time Alt. Az.
29 Jul 6.4 22:20:49 10° WNW 22:22:56 13° W 22:24:50 10° WSW visible
31 Jul 3.8 20:59:47 10° NNW 21:04:03 71° W 21:08:20 10° S visible
01 Aug 4.7 21:08:56 10° NNW 21:13:03 44° W 21:17:08 10° SSW visible
02 Aug 5.6 21:18:16 10° NNW 21:22:00 28° W 21:25:40 10° SSW visible
03 Aug 6.3 21:27:51 10° NW 21:30:56 19° W 21:33:53 10° SW visible
04 Aug 6.6 21:38:00 10° WNW 21:39:50 12° W 21:41:26 10° WSW visible
